Lid_Strength_Index
1 1 2 1 2 2 3 3 3 3 3 3 3 3 3 3 4 7 9 6 3 1 3 8 8 8 7 9 9 10 15 17 15 13 12 11 12 10 9 10 9 5 6 4 3
0 0 -0 -0 -0 0 1 2 3 2 3 3 4 3 3 3 7 9 5 2 3 2 4 8 9 9 11 11 11 13 16 14 12 12 13 11 12 11 11 11 10 7 4 3 3
0 0 0 -0 -0 -0 -0 -0 0 1 2 2 3 4 3 4 9 9 4 3 3 3 5 5 6 9 11 11 12 13 16 14 12 11 11 11 11 11 11 12 11 9 6 4 4
0 0 0 0 0 0 -0 -1 -1 -0 0 0 1 2 3 6 16 6 5 4 3 2 5 6 7 11 12 13 11 14 12 12 12 11 11 12 11 11 11 11 8 6 4 4 5
0 0 0 1 0 0 0 0 -0 -0 -0 0 1 1 5 9 10 5 3 3 3 2 5 8 8 11 12 12 11 13 12 11 11 12 12 11 12 12 11 11 8 4 4 5 5
1 1 1 1 1 1 0 1 1 0 0 0 1 1 7 13 5 4 6 6 4 3 5 7 7 7 10 11 12 11 11 11 11 11 12 13 13 12 12 10 10 9 6 5 4
1 1 1 1 1 1 1 1 1 1 0 0 0 2 7 10 4 4 5 6 5 5 6 5 6 8 9 11 9 10 13 12 12 11 12 12 14 14 11 11 11 10 9 8 5
1 1 1 1 1 1 1 1 1 1 1 0 -0 3 9 4 4 5 4 6 4 4 5 4 5 7 8 8 9 13 14 17 13 11 11 12 16 13 12 12 12 11 10 9 8
1 2 1 2 1 1 2 2 2 1 1 1 3 5 9 3 6 5 5 6 6 6 4 3 5 8 8 12 14 14 19 17 15 11 11 13 16 12 11 12 12 12 11 10 9
2 1 1 1 1 1 1 2 2 2 2 2 3 7 7 9 5 5 5 5 6 7 7 6 8 11 12 13 19 18 17 15 16 12 12 13 15 12 11 12 13 13 13 12 11
1 1 1 1 1 0 2 4 8 8 6 9 8 7 7 6 4 6 4 6 6 8 12 9 12 14 13 11 12 12 14 15 14 12 13 14 14 13 11 12 12 12 12 12 12
1 1 1 0 0 -0 1 6 7 6 10 6 6 6 5 5 9 7 5 8 8 12 11 11 14 12 10 10 11 12 15 16 13 12 13 15 15 13 12 11 11 11 11 11 11
2 1 1 1 -0 0 3 5 2 3 9 9 6 6 6 5 8 9 7 8 10 12 12 13 13 10 11 12 12 13 14 15 15 12 12 15 17 15 13 11 10 10 10 10 10
2 2 2 1 3 2 4 1 1 2 12 11 9 7 6 6 9 6 6 8 10 12 12 12 10 11 12 13 12 15 11 11 12 14 18 14 21 17 15 13 12 10 10 11 10
2 2 2 1 4 4 3 0 1 3 20 10 9 5 5 8 8 8 5 7 12 12 11 14 13 12 13 13 11 14 11 11 12 14 16 17 19 20 15 15 15 12 10 11 10
0 0 1 2 2 3 1 0 3 14 20 12 9 10 10 8 8 8 7 6 7 10 10 12 10 10 11 10 10 10 12 12 13 14 18 16 17 21 17 16 14 12 11 11 12
-2 -1 -0 0 5 0 2 5 14 18 10 13 12 10 10 11 10 9 10 11 13 15 15 14 13 12 11 12 11 11 13 18 19 20 19 15 17 16 15 14 14 13 13 12 11
-1 -1 -0 0 0 1 4 10 18 13 14 10 11 11 13 10 11 11 12 13 10 12 15 16 17 13 11 13 13 12 13 19 23 21 19 16 17 16 12 10 12 12 11 11 11
-1 2 2 1 -1 1 7 15 15 13 11 12 12 14 13 11 11 11 12 13 11 10 15 16 16 12 11 11 10 13 15 12 17 20 19 18 16 14 12 12 11 12 11 13 12
3 3 3 0 -0 4 10 13 12 9 9 10 14 13 16 14 13 13 13 10 12 9 9 12 16 12 11 9 10 11 10 16 15 24 23 20 18 18 16 14 11 11 12 12 11
3 7 3 -0 1 7 13 12 11 8 9 12 12 15 14 14 13 14 13 10 9 10 8 10 13 15 11 12 14 13 14 13 13 16 19 20 20 15 14 12 11 11 11 11 10
5 10 2 1 9 9 12 11 8 9 8 9 10 13 14 14 14 14 13 11 8 8 12 9 12 16 14 11 10 10 12 12 17 18 16 17 18 13 13 11 10 11 10 10 10
7 10 2 3 12 12 10 10 9 10 10 10 12 13 13 13 17 15 14 10 9 9 11 9 14 18 17 13 12 13 12 11 12 14 16 17 19 11 11 11 10 11 10 11 11
7 11 9 6 11 13 13 13 11 8 9 9 10 10 15 13 13 15 13 11 10 11 7 7 13 15 17 14 13 15 13 12 12 16 16 16 16 14 13 12 11 11 11 11 11
7 12 13 16 11 15 12 11 12 12 9 8 11 13 14 20 18 16 12 12 11 8 9 9 15 14 14 13 12 12 13 12 13 13 16 14 16 13 12 11 11 11 10 11 12
9 9 14 17 10 11 11 15 11 10 10 11 14 12 14 16 14 17 12 12 13 12 11 10 15 15 17 12 13 14 12 12 12 12 14 14 14 12 11 11 12 11 11 12 13
6 7 10 11 14 15 15 13 11 9 9 9 10 12 15 12 10 9 9 10 10 12 14 14 13 15 17 14 16 20 14 13 12 11 12 15 12 10 11 11 12 12 12 13 14